Über Flock 4be-14
Group: 3 satellites
Beschreibung wird geladen...
Live-Position
3D-Globus wird geladen...
Nächste Überflüge
Höhenverlauf
Altitude vs Time
uPlot chart will show altitude changes over time
Zweizeiliger Elementsatz
1 60517U 24149BB 26062.20592588 .00020070 00000-0 54889-3 0 9990
2 60517 97.3760 145.3063 0003236 319.5079 40.5924 15.37395784 86025
Epoch: 3. März 2026 •
Age: 38 hours
Aktueller Status
Höhe 466.0 km
Geschwindigkeit 7.63 km/s
Subsatellitenpunkt -37.94°S,
146.4°E
Startdatum 16. Aug. 2024
Alter 1.5 years
Typ earth observation
Technische Details
Klassifizierung Payload
Masse 5.70 kg
Trockenmasse 5.70 kg
Gesamtmasse 5.70 kg
Länge 0.30 m
Durchmesser 0.10 m
Spannweite 0.30 m
Form Box+2 pan
Hersteller PLAN
Bus-Typ Cubesat 3U
Phasenstatus In Orbit
Besitzer/Staat PLAN/US
Große Konstellationen
Loading constellations...